Date,TemperatureHighF,TemperatureAvgF,TemperatureLowF,DewpointHighF,DewpointAvgF,DewpointLowF,HumidityHigh,HumidityAvg,HumidityLow,PressureMaxIn,PressureMinIn,WindSpeedMaxMPH,WindSpeedAvgMPH,GustSpeedMaxMPH,PrecipitationSumIn
2013-3-1,31,28,25,23,20,16,84,71,59,30.01,29.91,15,7,15,0.00
2013-3-2,37,28,23,21,17,13,84,66,39,30.06,29.96,17,5,17,0.00
2013-3-3,61,42,23,31,23,15,78,49,28,29.96,29.59,17,5,17,0.00
2013-3-4,69,54,42,47,38,30,85,55,38,29.62,29.41,21,6,21,0.00
2013-3-5,44,37,29,34,25,16,96,64,42,30.06,29.62,31,13,31,0.11
2013-3-6,50,35,21,26,19,15,77,55,30,30.15,30.00,18,5,18,0.00
2013-3-7,65,48,32,32,25,18,75,44,18,30.04,29.92,14,5,14,0.00
2013-3-8,66,51,38,38,34,30,82,55,32,30.02,29.83,14,7,14,0.00
2013-3-9,70,58,51,57,47,36,99,67,38,29.85,29.50,20,7,20,1.55
2013-3-10,56,44,28,56,43,26,99,98,84,29.71,29.47,28,8,28,0.92
2013-3-11,44,32,26,29,23,19,93,72,41,29.81,29.66,23,10,23,0.00
2013-3-12,58,42,28,30,24,16,83,53,22,30.08,29.80,21,6,21,0.00
2013-3-13,54,38,24,23,18,8,77,47,19,30.22,30.07,14,3,14,0.00
2013-3-14,71,54,36,42,29,13,62,39,27,30.13,29.89,24,6,24,0.00
2013-3-15,80,65,50,48,44,38,81,51,23,29.91,29.60,23,7,23,0.00
2013-3-16,80,64,48,52,46,40,76,53,34,29.66,29.56,19,6,19,0.00
2013-3-17,47,41,39,41,39,38,99,93,75,29.67,29.47,20,8,20,0.14
2013-3-18,55,45,38,43,37,26,99,77,38,29.83,29.48,16,5,16,0.02
2013-3-19,59,44,32,30,23,15,77,48,21,30.02,29.81,15,4,15,0.00
2013-3-20,47,37,29,30,20,7,90,56,22,30.11,29.88,21,5,21,0.00
2013-3-21,42,33,29,32,19,6,99,62,23,29.88,29.60,15,5,15,0.07
2013-3-22,36,33,30,35,33,30,99,98,97,29.71,29.60,11,4,11,0.25
2013-3-23,38,36,34,38,35,33,99,98,97,29.70,29.49,14,6,14,0.02
2013-3-24,39,32,25,39,29,17,99,89,65,29.87,29.40,34,12,34,0.06
2013-3-25,33,26,21,23,18,14,78,72,58,30.08,29.84,22,10,22,0.00
2013-3-26,46,31,18,24,20,14,90,66,33,30.17,30.06,17,4,17,0.00
2013-3-27,62,53,30,33,24,18,68,34,21,30.08,29.92,12,5,12,0.00
2013-3-28,71,62,49,48,44,28,68,52,39,30.00,29.91,14,6,14,0.00
2013-3-29,72,59,51,56,52,47,99,76,52,29.99,29.89,11,3,11,0.07
2013-3-30,71,59,52,57,54,51,99,86,56,29.91,29.68,17,5,17,0.46
2013-3-31,70,60,49,54,44,31,99,57,26,29.78,29.68,15,5,15,0.06